Regional Weather Roundup
Issued by NWS Kansas City/Pleasant Hill, MO

Home | Current Version | Previous Version | Text Only | Print | Product List | Glossary On
Versions: 1 2 3 4 5 6 7 8 9 10 11 12 13 14 15 16 17 18 19 20 21 22 23 24 25 26 27 28 29 30 31 32 33 34 35 36 37 38 39 40 41 42 43 44 45 46 47 48 49 50
000
ASUS43 KEAX 260010
RWREAX

WEATHER ROUNDUP FOR EASTERN KANSAS AND NORTHWEST MISSOURI
NATIONAL WEATHER SERVICE KANSAS CITY/PLEASANT HILL MO
700 PM CDT WED APR 25 2018

KSZ040-057-103>105-MOZ028-029-037-043-260100-
...KANSAS CITY METROPOLITAN AREA...

CITY           SKY/WX    TMP DP  RH WIND       PRES   REMARKS
K.C. INTL      CLOUDY    50  48  93 N7        30.05F
6HR MIN TEMP:  47; 6HR MAX TEMP:  51; 6HR PCP:  0.31;

K.C. DOWNTOWN  CLOUDY    52  47  83 N6        30.05F
6HR MIN TEMP:  50; 6HR MAX TEMP:  52; 6HR PCP:  0.12;

LEES SUMMIT    CLOUDY    49  49 100 N9        30.05F
6HR MIN TEMP:  48; 6HR MAX TEMP:  50; 6HR PCP:  0.26;

OLATHE - IXD   CLOUDY    50  48  93 N10       30.05F
6HR MIN TEMP:  49; 6HR MAX TEMP:  50; 6HR PCP:  0.23;

OLATHE - OJC   CLOUDY    48  48 100 N8        30.04F
6HR MIN TEMP:  48; 6HR MAX TEMP:  49; 6HR PCP:  0.27;

LAWRENCE       CLOUDY    51  48  89 N6        30.06F

$$

MOZ001>008-011>017-020>025-030>033-038>040-044>046-053-054-260100-
...NORTHERN AND CENTRAL MISSOURI...

CITY           SKY/WX    TMP DP  RH WIND       PRES   REMARKS
ST. JOSEPH     CLOUDY    52  40  63 NE9       30.07F
6HR MIN TEMP:  48; 6HR MAX TEMP:  55; 6HR PCP:  0.06;

MOSBY          CLOUDY    52  45  76 NE3       30.05F
WARRENSBURG    LGT RAIN  50  46  87 NE5       30.05F
WHITEMAN AFB   DRIZZLE   49  48  95 N8        30.00F
6HR MIN TEMP:  49; 6HR MAX TEMP:  51; 6HR PCP:  0.21;

CLINTON        LGT RAIN  50  50 100 NE7       30.03F
SEDALIA        LGT RAIN  51  50  96 N7        30.04F
6HR MIN TEMP:  51; 6HR MAX TEMP:  53; 6HR PCP:  0.08;

WARSAW         NOT AVBL
CHILLICOTHE      N/A     53  48  83 VRB3      30.05F
6HR MIN TEMP:  50; 6HR MAX TEMP:  53; 6HR PCP:  0.05;

KIRKSVILLE     CLOUDY    53  47  79 W7        30.02F
6HR MIN TEMP:  53; 6HR MAX TEMP:  57;


$$

MOZ041-047>049-056>058-063>065-088>090-097-260100-
...EASTERN AND SOUTHERN MISSOURI...

CITY           SKY/WX    TMP DP  RH WIND       PRES   REMARKS
ST. LOUIS INTL CLOUDY    63  48  58 NW7       29.97F
6HR MIN TEMP:  63; 6HR MAX TEMP:  66;

SPIRIT OF STL  CLOUDY    62  49  62 NW7       29.96F
COLUMBIA       CLOUDY    52  48  86 NW6       30.02F
JEFFERSON CITY LGT RAIN  52  50  93 NW7       30.02F
ROLLA          LGT RAIN  51  48  89 NW8       30.01F
OSAGE BEACH    LGT RAIN  50  49  96 N5        30.03F
SPRINGFIELD    LGT RAIN  53  48  83 E3        29.98F
BRANSON        LGT RAIN  50  50 100 CALM      29.99F FOG
JOPLIN         LGT RAIN  53  51  93 VRB3      29.99F
WEST PLAINS    CLOUDY    55  51  86 N3        30.00F

$$

IAZ060-094-KSZ022-034>040-054-083-096-NEZ052-066-093-260100-
...KANSAS...SOUTHEAST NEBRASKA AND IOWA...

CITY           SKY/WX    TMP DP  RH WIND       PRES   REMARKS
TOPEKA         CLOUDY    50  49  96 N5        30.07S
6HR MIN TEMP:  48; 6HR MAX TEMP:  50; 6HR PCP:  0.22;

MANHATTAN      CLOUDY    50  44  80 N6        30.10F
EMPORIA        LGT RAIN  47  45  93 N9        30.07S FOG
CHANUTE        CLOUDY    51  48  89 N12       30.03S
WICHITA        PTSUNNY   50  44  80 N15       30.10S
OMAHA          MOSUNNY   63  33  32 NW9       30.04F
LINCOLN        SUNNY     58  30  34 CALM      30.09F
FALLS CITY     CLOUDY    54  35  48 NE6       30.08F
LAMONI         PTSUNNY   57  33  40 NW7       30.03F
DES MOINES     MOSUNNY   64  27  24 NE8       30.01F

$$




USA.gov is the U.S. government's official web portal to all federal, state and local government web resources and services.